578  
ASUS43 KFGF 171931  
RWRFGF  
PRAIRIE TO PINES WEATHER ROUNDUP  
NATIONAL WEATHER SERVICE EASTERN NORTH DAKOTA/GRAND FORKS ND  
200 PM CDT TUE SEP 17 2019  
 
**SATELLITE DATA USED TO AUGMENT SKY COVER AT AUTOMATED STATIONS**  
***** WEATHER ACROSS EASTERN NORTH DAKOTA *****  
 
CITY SKY/WX TMP DP RH WIND PRES REMARKS
 
GRAND FORKS CLOUDY 84 68 58 S16 29.65F  
GRAND FRKS AFB PTSUNNY 83 69 63 S16G22 29.65F  
GRAND FRKS NWS N/A 83 71 66 S10 29.61F  
DEVILS LAKE FAIR 79 68 69 SE13 29.63F  
FARGO FAIR 85 70 60 S20G31 29.66F  
WAHPETON ARPT N/A 86 66 51 S22G32 29.69F  

 
 
***** WEATHER ACROSS CENTRAL AND WESTERN NORTH DAKOTA *****  
 
CITY SKY/WX TMP DP RH WIND PRES REMARKS
 
BISMARCK FAIR 80 66 62 S10 29.60F  
MINOT FAIR 86 67 52 SE14 29.54F  
JAMESTOWN FAIR 82 67 60 S20G25 29.63F  
MINOT AFB FAIR 84 67 57 SE14 29.53F  
GARRISON N/A 80 66 62 S9 29.56F  
WILLISTON FAIR 75 62 64 S6 29.55F  
DICKINSON FAIR 85 52 32 S13 29.59F  
HETTINGER FAIR 86 48 26 SW15G23 29.65F  

 
 
***** OTHER AIRPORT OBSERVATIONS IN OUR AREA *****  
 
CITY SKY/WX TMP DP RH WIND PRES REMARKS
 
WALHALLA FAIR 82 70 65 SE15G23 29.63F  
GRAFTON AIRPOR FAIR 84 68 58 SE20 29.65F  
VALLEY CITY AR FAIR 82 70 65 S21 29.67F  
CANDO FAIR 81 68 65 SE16 29.63F  
CAVALIER APRT FAIR 81 68 65 SE14 29.63F  
GWINNER CLEAR 86 70 58 S18G26 29.67F HX 90  
SHEYENNE NWR N/A 86 69 55 S20 29.95S HX 90  
ROLLA FAIR 81 66 61 SE16 29.63F  
***** THE ABOVE OBSERVATIONS ARE NON NWS ARE NOT QUALITY  
CONTROLLED AND MAY MIS-REPORT RAIN FOR SNOW...  

 
 
***** WEATHER ACROSS NORTHERN MINNESOTA *****  
 
CITY SKY/WX TMP DP RH WIND PRES REMARKS
 
FLAG ISLAND N/A 70 61 73 SE22 29.77F  
WARROAD N/A 73 70 88 SE14G20 29.76F  
ROSEAU NOT AVBL  
HALLOCK PTSUNNY 84 70 61 SE18G24 29.65F  
THF RVR FALLS CLOUDY 81 70 69 S15 29.72F  
BAUDETTE CLOUDY 72 64 76 SE17G33 29.81F  
WASKISH CLOUDY 72 66 83 SE13G18 29.81F  
CROOKSTON FAIR 82 70 65 S15G24 29.67F  
STEPHEN NDAWN N/A 84 68 58 S18 N/A  
GREENBUSH NDAW N/A 79 68 69 SE15 N/A  

 
***** WEATHER ACROSS CENTRAL AND WEST MINNESOTA *****  
 
CITY SKY/WX TMP DP RH WIND PRES REMARKS
 
FOSSTON FAIR 79 68 69 SE12G17 29.73F  
BEMIDJI CLOUDY 71 67 85 SE14G21 29.78F  
PARK RAPIDS PTSUNNY 79 69 71 S21G30 29.79F  
ELBOW LAKE FAIR 84 72 67 S21G28 29.76F  
WADENA FAIR 84 70 61 S22G31 29.78F  
DETROIT LAKES FAIR 82 70 65 S18 29.75F  
MOORHEAD FAIR 84 70 61 S17G29 29.68F  
FERGUS FALLS FAIR 84 72 65 S24G31 29.72F  
MORRIS MN FAIR 88 68 51 S22G30 29.72F HX 91  
STAPLES FAIR 82 70 65 S16 29.81F  

 
***** WEATHER ELSEWHERE ACROSS MINNESOTA *****  
 
CITY SKY/WX TMP DP RH WIND PRES REMARKS
 
DULUTH LGT RAIN 64 60 87 SE13 29.95F FOG  
INTRNTL FALLS CLOUDY 66 62 87 SE18G28 29.87F  
ELY TSTM 64 64 100 SE6 29.97F  
CLOQUET PTSUNNY 63 61 94 E9 29.94F  
WHEATON NOT AVBL  
BRAINERD FAIR 82 69 64 S15G24 29.85F  
HIBBING PTSUNNY 66 63 90 SE14G21 29.92F  
ALEXANDRIA FAIR 84 70 62 S23G38 29.82F  
SAINT CLOUD FAIR 84 70 62 S18G31 29.87F  
MINNEAPOLIS FAIR 85 68 56 S21G29 29.94F  

 
 
***** WEATHER ACROSS SOUTH DAKOTA *****  
 
CITY SKY/WX TMP DP RH WIND PRES REMARKS
 
SIOUX FALLS FAIR 87 68 52 S25G35 29.83F HX 90  
BROOKINGS FAIR 85 71 63 S23G31 29.81F HX 90  
WATERTOWN FAIR 84 69 60 S22G43 29.75F  
HURON FAIR 86 68 54 S17G30 29.71F  
SISSETON N/A 87 70 56 S18G29 29.70F HX 92  
ABERDEEN FAIR 86 67 52 S21G33 29.68F  
MITCHELL FAIR 90 68 48 S21G35 29.74F HX 94  
PIERRE FAIR 88 63 43 S18 29.64F  
MOBRIDGE FAIR 81 65 58 S14 29.62S  
RAPID CITY FAIR 83 55 38 SE10 29.73F  

 
 
***** SOME WEATHER IN NEARBY STATES *****  
 
CITY SKY/WX TMP DP RH WIND PRES REMARKS
 
GLASGOW MT FAIR 74 54 49 NW17 29.62F  
GREAT FALLS MT CLOUDY 64 39 39 NW9G20 29.81S  
CHEYENNE WY FAIR 82 31 15 S16G23 29.95F  
SCOTTSBLUFF NE FAIR 77 51 40 CALM 29.84F  
OMAHA NE MOSUNNY 90 69 50 S22G29 29.94F HX 94  
DES MOINES IA PTSUNNY 88 71 57 S15G22 30.00F HX 94  
DAVENPORT IA FAIR 77 67 71 E10 30.12F  
CHICAGO IL PTSUNNY 78 63 59 E7 30.14F  
EAU CLAIRE WI FAIR 84 65 52 SE16G23 30.00F  
LA CROSSE WI FAIR 85 61 44 S12 30.04F  

 
 
***** SOME NATIONAL WEATHER *****  
 
CITY SKY/WX TMP DP RH WIND PRES REMARKS
 
LA GUARDIA NY FAIR 76 40 27 N9G18 30.10F  
RALEIGH NC FAIR 86 63 45 E9 29.99F  
ATLANTA GA FAIR 96 62 32 NW10 29.99F HX 97  
NEW ORLEANS LA PTSUNNY 93 72 50 S10 30.00F HX 101  
OKLAHOMA CITY FAIR 90 68 48 S14 30.01F HX 94  
ALBUQUERQUE NM FAIR 74 54 49 CALM 30.16F  
SALT LAKE CITY FAIR 63 37 38 W8 30.10S  
LOS ANGELES CA FAIR 77 61 57 SW10 29.97S  
BOISE ID FAIR 59 43 55 E5 30.06F  
SEATTLE WA PTSUNNY 60 52 74 S12 29.73F  

 
 
*** WEATHER ACROSS MANITOBA...SASKATCHEWAN AND ONTARIO ***  
***ONTARIO***  
 
CITY SKY/WX TMP DP RH WIND PRES REMARKS
 
GERALDTON PTSUNNY 70 63 78 S14 30.04S  
THUNDER BAY CLOUDY 68 63 83 NE8 30.00S  
SIOUX LOOKOUT CLOUDY 77 66 69 SW13G23 29.93R  
TORONTO MOSUNNY 72 50 46 SE8G17 30.21F  
BIG TROUT LK SUNNY 75 59 57 SE10G17 29.91F  
PICKLE LAKE CLOUDY 68 63 83 SE12G22 29.93F  
DRYDEN PTSUNNY 79 63 57 S23G32 29.90F  
KENORA PTSUNNY 79 64 61 SE18G26 29.81F  

 
*** MANITOBA***  
 
CITY SKY/WX TMP DP RH WIND PRES REMARKS
 
BRANDON PTSUNNY 82 68 61 SE16G22 29.58F  
DAUPHIN SUNNY 86 70 58 CALM 29.53F HX 90  
ISLAND LAKE NOT AVBL  
PILOT MOUND N/A 81 66 61 SE18G25 N/A  
THE PAS MOSUNNY 77 66 69 E10G17 29.53F  
THOMPSON PTSUNNY 79 63 57 SE5 29.62F  
WINNIPEG MOSUNNY 86 66 51 SE18G24 29.65F  
LYNN LAKE CLOUDY 73 63 68 S6 29.60R  
CHURCHILL PTSUNNY 75 52 43 S21G32 29.79F  
GILLAM CLOUDY 79 55 44 SE16G24 29.74F  

 
***SASKATCHEWAN***  
 
CITY SKY/WX TMP DP RH WIND PRES REMARKS
 
ESTEVAN PTSUNNY 79 66 65 SW3 29.54S  
KINDERSLEY PTSUNNY 66 52 59 W10 29.69S  
LLOYDMINSTER PTSUNNY 61 50 67 NW12 29.71R  
PRINCE ALBERT CLOUDY 70 57 64 NE13 29.60S  
REGINA CLOUDY 66 63 88 N7 29.57S  
YORKTON SUNNY 77 66 69 S8 29.54F  
N. BATTLEFORD SUNNY 70 54 56 NW7 29.68R  
LA RONGE CLOUDY 64 59 82 W9 29.64R  
SASKATOON CLOUDY 77 54 44 NE12G18 29.59S  
SWIFT CURRENT PTSUNNY 72 54 53 NW7 29.66F  

 
NOTE: THESE ARE AUTOMATED STATIONS WITH LIMITED QUALITY CONTROL  
"FAIR" INDICATES FEW OR NO CLOUDS BELOW 12,000 FEET WITH NO  
SIGNIFICANT WEATHER AND/OR S TO VISIBILITY
.  
SKY/WX - SKY CONDITION AND SIGNIFICANT WEATHER.  
TMP - AIR TEMPERATURE. DP - DEWPOINT TEMPERATURE.  
RH - RELATIVE HUMIDITY. PRES - PRESSURE.  
HX - HEAT INDEX. WCI - WIND CHILL INDEX.  
$  
 
 
CLICK HERE TO GO TO PREVIOUS BULLETINS.

The Nexlab ND Page
The Nexlab MN Page Main Text Page